GFSGL_500_temp_057.txt.gz
Temp
-12 -13 -13 -12 -11 -11 -11 -11 -12 -12 -12 -12 -12 -12 -12 -12 -12 -12 -12 -11 -11 -11 -11 -11 -11 -11 -11 -11 -11 -11 -11 -11 -11 -11 -12 -12 -12 -12 -12 -12 -12 -12 -12
-12 -12 -12 -12 -12 -12 -11 -11 -11 -11 -12 -11 -11 -12 -12 -12 -11 -12 -12 -11 -11 -11 -11 -11 -11 -11 -11 -11 -11 -11 -12 -11 -11 -12 -12 -12 -12 -12 -12 -12 -12 -12 -12
-14 -12 -12 -12 -12 -12 -12 -11 -11 -11 -11 -11 -11 -11 -11 -11 -11 -11 -11 -11 -11 -11 -11 -11 -11 -11 -11 -11 -11 -11 -11 -11 -11 -12 -12 -12 -12 -12 -12 -12 -12 -12 -12
-16 -15 -12 -11 -11 -11 -12 -12 -12 -12 -12 -12 -12 -12 -11 -11 -11 -11 -11 -11 -11 -11 -11 -11 -11 -11 -11 -11 -11 -11 -11 -11 -12 -12 -12 -12 -12 -12 -12 -12 -12 -12 -12
-16 -16 -15 -12 -11 -11 -11 -11 -12 -12 -12 -12 -11 -11 -11 -11 -11 -11 -11 -11 -11 -11 -11 -12 -11 -11 -11 -11 -11 -11 -11 -12 -12 -12 -12 -12 -12 -12 -12 -12 -12 -12 -12
-17 -17 -16 -16 -13 -11 -11 -11 -12 -12 -12 -12 -11 -11 -11 -11 -11 -11 -11 -11 -11 -11 -11 -11 -11 -11 -11 -11 -11 -12 -12 -12 -12 -12 -12 -12 -12 -12 -12 -12 -12 -12 -12
-20 -20 -20 -18 -16 -12 -11 -11 -11 -11 -12 -11 -11 -11 -11 -11 -11 -12 -11 -11 -11 -11 -11 -12 -12 -11 -11 -11 -12 -12 -12 -12 -12 -12 -12 -12 -12 -12 -12 -12 -12 -13 -12
-20 -20 -20 -20 -18 -13 -12 -11 -11 -11 -11 -11 -11 -11 -11 -11 -11 -11 -11 -11 -11 -11 -11 -11 -11 -11 -11 -12 -12 -12 -12 -12 -12 -13 -12 -12 -12 -12 -12 -12 -12 -12 -12
-20 -20 -20 -20 -18 -15 -12 -12 -11 -11 -11 -11 -11 -11 -11 -12 -11 -11 -11 -12 -11 -11 -11 -11 -11 -11 -12 -12 -12 -12 -12 -12 -12 -12 -13 -12 -12 -12 -12 -12 -12 -12 -12
-20 -20 -20 -20 -18 -14 -13 -12 -11 -12 -12 -11 -11 -11 -11 -11 -11 -11 -11 -12 -11 -11 -12 -11 -11 -12 -12 -12 -12 -12 -12 -12 -12 -13 -13 -12 -12 -12 -12 -12 -12 -12 -12
-20 -20 -20 -19 -17 -14 -12 -12 -12 -12 -12 -11 -11 -11 -11 -11 -11 -12 -12 -11 -12 -11 -11 -12 -12 -12 -12 -12 -12 -12 -12 -12 -12 -12 -12 -12 -12 -12 -12 -12 -12 -12 -12
-18 -19 -19 -18 -15 -14 -13 -12 -12 -12 -12 -11 -11 -11 -11 -11 -12 -12 -12 -12 -12 -12 -11 -12 -12 -12 -12 -12 -12 -12 -12 -12 -12 -12 -12 -12 -12 -12 -12 -12 -12 -13 -12
-18 -18 -18 -16 -14 -13 -13 -12 -12 -12 -12 -11 -11 -11 -12 -12 -12 -12 -12 -12 -11 -11 -12 -12 -12 -12 -12 -12 -12 -12 -12 -12 -12 -12 -12 -13 -12 -13 -12 -12 -12 -12 -13
-18 -17 -16 -14 -13 -13 -13 -13 -13 -12 -12 -12 -11 -12 -12 -12 -12 -12 -12 -11 -12 -12 -12 -12 -12 -12 -12 -13 -13 -12 -12 -12 -13 -13 -13 -13 -12 -12 -12 -12 -12 -12 -12
-16 -15 -14 -14 -14 -13 -13 -13 -12 -12 -12 -12 -12 -12 -13 -12 -12 -12 -12 -12 -12 -12 -12 -12 -12 -12 -13 -13 -13 -13 -13 -13 -13 -13 -13 -12 -12 -12 -12 -12 -13 -13 -13
-14 -14 -14 -13 -13 -13 -13 -12 -13 -13 -12 -12 -12 -13 -13 -12 -12 -12 -12 -12 -12 -12 -12 -12 -12 -13 -13 -13 -13 -13 -13 -13 -13 -13 -12 -12 -13 -13 -13 -13 -13 -13 -13
-14 -13 -13 -13 -13 -13 -13 -13 -13 -13 -13 -12 -13 -13 -12 -12 -12 -12 -12 -12 -12 -12 -12 -12 -13 -13 -13 -13 -13 -13 -13 -13 -13 -13 -13 -13 -13 -13 -13 -13 -13 -13 -13
-12 -13 -13 -13 -13 -13 -13 -13 -12 -13 -13 -13 -12 -12 -12 -12 -12 -12 -12 -12 -12 -12 -12 -12 -12 -12 -12 -13 -13 -13 -13 -13 -13 -13 -13 -13 -13 -13 -13 -13 -13 -13 -13
-13 -13 -13 -13 -13 -13 -13 -12 -12 -12 -12 -12 -12 -12 -12 -12 -12 -12 -12 -12 -12 -12 -12 -12 -12 -12 -12 -12 -13 -13 -13 -13 -12 -12 -13 -13 -13 -13 -13 -13 -13 -13 -13
-13 -13 -13 -13 -12 -12 -12 -12 -12 -12 -12 -12 -12 -12 -13 -12 -12 -12 -11 -11 -11 -12 -11 -11 -11 -12 -12 -12 -12 -12 -12 -12 -12 -13 -13 -13 -13 -13 -13 -13 -13 -13 -13
-13 -12 -13 -13 -12 -11 -11 -12 -12 -12 -12 -12 -13 -13 -13 -12 -12 -11 -11 -11 -11 -11 -11 -11 -11 -12 -12 -12 -12 -12 -12 -13 -13 -13 -13 -13 -13 -13 -13 -13 -13 -14 -13
-12 -13 -12 -12 -12 -12 -12 -12 -12 -12 -12 -13 -13 -12 -12 -12 -12 -12 -11 -11 -11 -11 -11 -11 -11 -12 -12 -12 -12 -12 -13 -13 -13 -13 -13 -13 -13 -13 -14 -14 -13 -14 -14
-12 -12 -12 -12 -12 -12 -12 -12 -12 -13 -13 -12 -12 -12 -12 -12 -12 -11 -11 -11 -11 -11 -11 -11 -11 -12 -12 -12 -12 -12 -12 -13 -13 -13 -13 -14 -14 -14 -14 -14 -14 -14 -14
-12 -12 -12 -12 -12 -13 -13 -12 -13 -13 -12 -12 -12 -12 -12 -12 -11 -11 -11 -11 -11 -12 -12 -12 -12 -12 -12 -12 -12 -12 -12 -13 -13 -13 -13 -13 -13 -14 -14 -14 -14 -14 -14
-12 -12 -12 -13 -13 -13 -13 -12 -13 -12 -12 -12 -12 -12 -12 -12 -12 -12 -12 -12 -12 -12 -12 -12 -12 -12 -12 -12 -12 -13 -13 -13 -13 -13 -14 -14 -14 -14 -14 -14 -14 -14 -14
-13 -13 -13 -13 -13 -13 -13 -13 -13 -12 -12 -12 -12 -12 -12 -12 -12 -12 -12 -12 -12 -12 -12 -12 -12 -13 -13 -13 -13 -14 -14 -14 -14 -14 -14 -14 -14 -14 -14 -14 -14 -15 -14

GFSGL_500_temp_060.txt.gz
Temp
-13 -13 -13 -13 -12 -12 -12 -12 -13 -12 -13 -13 -10 -11 -11 -12 -12 -12 -13 -12 -12 -12 -11 -11 -11 -11 -11 -11 -10 -11 -11 -11 -12 -11 -11 -12 -12 -12 -12 -12 -12 -12 -12
-13 -14 -13 -12 -12 -12 -12 -12 -12 -12 -12 -12 -12 -12 -11 -12 -12 -12 -12 -12 -11 -12 -11 -10 -10 -11 -11 -11 -11 -11 -11 -12 -12 -12 -11 -12 -11 -12 -12 -12 -12 -12 -12
-15 -14 -14 -14 -13 -12 -12 -12 -12 -12 -11 -12 -12 -12 -12 -12 -12 -11 -11 -12 -11 -11 -11 -11 -11 -11 -11 -11 -11 -11 -12 -12 -12 -12 -12 -11 -12 -12 -12 -12 -12 -12 -12
-16 -16 -15 -15 -14 -13 -12 -12 -12 -12 -11 -11 -12 -12 -12 -12 -11 -11 -11 -11 -11 -11 -11 -11 -11 -11 -11 -11 -11 -12 -12 -12 -12 -12 -12 -12 -12 -12 -12 -12 -12 -12 -12
-17 -16 -16 -16 -15 -14 -14 -12 -12 -12 -11 -11 -11 -12 -11 -11 -11 -11 -11 -11 -11 -11 -10 -11 -11 -10 -11 -11 -11 -12 -12 -11 -11 -12 -12 -12 -12 -12 -12 -12 -12 -12 -12
-17 -17 -17 -16 -15 -15 -15 -13 -12 -12 -11 -11 -11 -11 -11 -11 -11 -10 -11 -11 -11 -11 -11 -11 -10 -11 -11 -11 -12 -12 -12 -11 -12 -12 -12 -12 -12 -12 -12 -12 -12 -12 -12
-18 -17 -17 -16 -16 -16 -15 -15 -12 -12 -11 -11 -11 -11 -11 -11 -11 -11 -11 -11 -11 -11 -11 -11 -11 -11 -11 -11 -12 -11 -11 -11 -12 -12 -12 -12 -12 -12 -12 -12 -12 -12 -12
-17 -17 -17 -17 -17 -17 -16 -15 -15 -12 -11 -11 -11 -11 -11 -11 -11 -11 -11 -12 -11 -11 -11 -11 -12 -11 -12 -11 -12 -11 -11 -12 -12 -12 -13 -12 -12 -12 -12 -12 -12 -12 -12
-19 -18 -18 -18 -18 -19 -18 -16 -15 -13 -12 -11 -12 -11 -11 -11 -12 -12 -12 -11 -11 -11 -11 -12 -12 -11 -12 -12 -12 -11 -12 -12 -12 -12 -12 -12 -12 -12 -12 -12 -12 -12 -12
-19 -19 -18 -19 -19 -19 -19 -18 -15 -13 -12 -11 -12 -12 -11 -11 -12 -12 -12 -11 -11 -11 -11 -12 -11 -11 -12 -12 -12 -12 -12 -12 -13 -12 -12 -12 -12 -12 -12 -12 -12 -13 -12
-19 -19 -19 -19 -20 -20 -20 -20 -16 -14 -12 -12 -12 -11 -11 -12 -12 -12 -12 -11 -11 -11 -12 -12 -12 -12 -12 -12 -12 -12 -12 -12 -12 -12 -12 -12 -12 -12 -12 -12 -12 -12 -13
-19 -20 -20 -19 -20 -20 -20 -19 -16 -14 -12 -12 -12 -12 -12 -12 -12 -12 -11 -11 -12 -12 -11 -12 -12 -11 -12 -12 -12 -12 -12 -12 -12 -12 -12 -12 -12 -12 -12 -12 -12 -13 -12
-19 -19 -19 -20 -19 -20 -20 -18 -15 -14 -13 -12 -12 -12 -13 -12 -12 -11 -11 -11 -12 -12 -12 -12 -12 -12 -12 -12 -12 -12 -12 -12 -12 -12 -12 -13 -12 -12 -12 -12 -13 -13 -13
-18 -18 -18 -18 -19 -19 -18 -16 -14 -13 -12 -12 -12 -12 -12 -12 -11 -11 -12 -12 -12 -12 -12 -12 -12 -12 -12 -12 -12 -13 -13 -13 -12 -12 -12 -12 -13 -12 -12 -13 -13 -13 -13
-18 -18 -18 -17 -18 -17 -15 -14 -13 -13 -12 -12 -12 -12 -12 -12 -12 -12 -12 -12 -12 -12 -12 -12 -12 -12 -12 -12 -13 -13 -13 -13 -12 -12 -12 -12 -13 -13 -13 -13 -13 -13 -13
-17 -17 -17 -17 -16 -15 -14 -14 -13 -13 -12 -12 -12 -12 -12 -12 -12 -12 -12 -12 -12 -12 -12 -12 -12 -12 -13 -13 -13 -13 -13 -13 -13 -13 -13 -13 -13 -13 -13 -13 -13 -13 -13
-16 -15 -15 -14 -14 -13 -13 -13 -10 -11 -12 -12 -12 -12 -13 -13 -12 -12 -12 -12 -12 -12 -13 -13 -13 -13 -13 -13 -13 -13 -13 -13 -13 -13 -13 -13 -13 -13 -13 -13 -13 -13 -13
-14 -14 -13 -13 -13 -12 -13 -12 -12 -13 -12 -12 -12 -12 -12 -12 -12 -12 -12 -12 -12 -13 -13 -13 -13 -13 -13 -13 -13 -13 -13 -13 -13 -13 -13 -13 -13 -13 -13 -13 -13 -13 -13
-13 -13 -12 -13 -12 -13 -13 -13 -12 -12 -12 -13 -13 -13 -12 -12 -12 -12 -12 -12 -13 -13 -13 -12 -13 -13 -13 -13 -13 -13 -13 -13 -13 -13 -13 -13 -13 -12 -12 -13 -13 -13 -13
-11 -11 -13 -13 -12 -12 -12 -12 -13 -12 -12 -12 -12 -12 -12 -12 -12 -12 -13 -13 -13 -12 -12 -12 -12 -12 -12 -12 -13 -13 -13 -13 -13 -13 -13 -13 -13 -13 -13 -13 -13 -13 -13
-12 -11 -12 -12 -12 -13 -13 -13 -12 -12 -12 -12 -12 -12 -12 -12 -13 -13 -13 -12 -12 -12 -11 -11 -11 -12 -12 -12 -12 -12 -12 -12 -13 -13 -13 -13 -13 -13 -13 -13 -13 -13 -13
-12 -12 -12 -12 -12 -12 -12 -12 -12 -12 -12 -12 -12 -12 -13 -13 -12 -12 -12 -11 -11 -11 -11 -11 -11 -12 -12 -12 -12 -12 -12 -12 -13 -13 -13 -13 -13 -13 -13 -13 -13 -14 -14
-12 -12 -12 -12 -13 -12 -12 -12 -11 -11 -12 -12 -13 -13 -12 -12 -12 -12 -11 -11 -11 -11 -11 -12 -12 -12 -12 -12 -12 -12 -13 -13 -13 -13 -13 -13 -13 -13 -14 -14 -14 -14 -14
-12 -12 -13 -12 -12 -12 -12 -12 -12 -12 -13 -13 -13 -13 -12 -12 -11 -12 -11 -11 -11 -12 -12 -12 -12 -12 -12 -12 -12 -12 -13 -13 -13 -13 -13 -13 -14 -14 -14 -14 -14 -14 -14
-12 -12 -12 -12 -12 -12 -12 -12 -13 -13 -12 -13 -13 -12 -12 -12 -12 -12 -12 -12 -12 -12 -12 -12 -12 -12 -12 -12 -13 -13 -13 -13 -13 -13 -13 -14 -14 -14 -14 -14 -14 -14 -14
-13 -12 -13 -12 -12 -12 -12 -13 -13 -13 -12 -12 -12 -12 -12 -12 -12 -12 -12 -12 -12 -12 -12 -12 -12 -12 -12 -12 -12 -13 -13 -13 -13 -13 -14 -14 -14 -14 -14 -14 -14 -14 -14

GFSGL_500_temp_063.txt.gz
Temp
-14 -14 -13 -13 -13 -13 -12 -12 -13 -13 -13 -12 -12 -11 -11 -11 -11 -11 -11 -11 -11 -11 -11 -12 -12 -12 -12 -12 -12 -12 -11 -11 -11 -11 -11 -12 -12 -11 -12 -12 -12 -12 -11
-14 -14 -14 -13 -13 -13 -13 -13 -13 -13 -13 -13 -13 -12 -12 -11 -12 -12 -11 -11 -11 -12 -11 -12 -12 -13 -12 -12 -12 -11 -11 -11 -11 -10 -12 -12 -12 -12 -11 -12 -12 -12 -12
-15 -15 -15 -15 -14 -14 -13 -13 -13 -12 -12 -12 -13 -12 -12 -12 -11 -12 -11 -11 -12 -12 -12 -12 -12 -12 -12 -12 -11 -11 -11 -11 -11 -11 -12 -11 -12 -11 -12 -12 -12 -12 -12
-16 -16 -16 -15 -15 -15 -14 -13 -13 -13 -12 -12 -12 -12 -12 -12 -12 -12 -11 -11 -12 -11 -11 -11 -11 -12 -12 -12 -11 -11 -11 -11 -11 -11 -12 -12 -11 -11 -12 -12 -12 -12 -12
-17 -17 -17 -17 -16 -16 -16 -15 -14 -13 -13 -12 -12 -12 -12 -12 -12 -12 -11 -11 -11 -11 -11 -12 -12 -11 -12 -12 -11 -11 -11 -11 -11 -12 -12 -12 -11 -11 -12 -12 -12 -12 -12
-17 -17 -17 -17 -17 -16 -16 -16 -15 -15 -13 -12 -12 -12 -12 -12 -12 -12 -12 -12 -11 -11 -11 -12 -12 -11 -11 -11 -11 -11 -11 -11 -12 -12 -12 -12 -12 -12 -12 -12 -12 -12 -12
-18 -17 -17 -17 -17 -17 -16 -16 -16 -16 -15 -13 -12 -11 -12 -12 -12 -12 -12 -12 -11 -11 -11 -11 -11 -11 -11 -11 -11 -11 -11 -12 -12 -12 -12 -12 -12 -12 -12 -12 -12 -12 -12
-18 -18 -18 -17 -17 -17 -17 -16 -16 -16 -16 -15 -13 -11 -12 -11 -12 -11 -11 -11 -12 -12 -11 -11 -11 -11 -11 -11 -11 -11 -12 -12 -12 -12 -12 -12 -12 -12 -12 -12 -12 -12 -12
-18 -18 -18 -17 -17 -16 -17 -16 -16 -16 -16 -15 -14 -12 -12 -11 -11 -11 -11 -12 -12 -11 -12 -12 -12 -12 -11 -11 -11 -11 -12 -12 -12 -12 -12 -12 -12 -12 -12 -12 -12 -12 -12
-18 -18 -17 -17 -18 -18 -18 -17 -16 -16 -16 -15 -15 -13 -12 -11 -11 -11 -12 -13 -12 -12 -12 -12 -12 -11 -11 -11 -11 -12 -12 -12 -12 -12 -12 -12 -12 -13 -13 -12 -12 -12 -13
-18 -18 -17 -18 -18 -19 -19 -19 -17 -16 -16 -15 -15 -14 -12 -12 -11 -12 -12 -12 -12 -12 -12 -12 -12 -11 -11 -11 -12 -12 -12 -12 -12 -12 -12 -12 -12 -13 -13 -12 -12 -12 -13
-17 -18 -18 -19 -19 -19 -19 -19 -18 -18 -16 -16 -16 -14 -12 -12 -12 -12 -12 -13 -13 -12 -12 -12 -11 -12 -11 -12 -12 -12 -12 -12 -12 -12 -12 -12 -12 -12 -13 -13 -13 -13 -13
-17 -18 -18 -19 -19 -19 -20 -20 -19 -19 -17 -16 -15 -14 -12 -12 -12 -12 -13 -13 -12 -12 -12 -12 -12 -12 -12 -12 -12 -12 -12 -12 -12 -12 -12 -12 -12 -12 -13 -13 -13 -13 -13
-18 -18 -18 -19 -19 -19 -20 -20 -20 -19 -17 -16 -15 -13 -13 -12 -12 -13 -13 -13 -12 -12 -12 -12 -12 -12 -12 -12 -12 -12 -12 -12 -12 -12 -12 -12 -13 -13 -13 -13 -13 -13 -13
-18 -18 -18 -18 -19 -20 -19 -20 -20 -20 -17 -15 -13 -13 -13 -13 -13 -13 -13 -13 -12 -12 -12 -12 -12 -12 -12 -12 -12 -12 -12 -13 -13 -13 -12 -12 -12 -12 -13 -13 -13 -13 -13
-18 -17 -18 -18 -18 -19 -19 -19 -19 -18 -16 -14 -13 -13 -13 -13 -13 -13 -13 -12 -12 -12 -12 -12 -12 -12 -12 -12 -12 -13 -13 -13 -13 -13 -12 -13 -13 -13 -13 -13 -13 -13 -13
-18 -18 -18 -17 -17 -17 -18 -18 -18 -16 -15 -13 -13 -12 -13 -13 -13 -13 -13 -12 -12 -13 -12 -12 -12 -12 -12 -13 -13 -13 -13 -13 -13 -13 -13 -13 -13 -13 -13 -13 -13 -13 -13
-16 -15 -15 -15 -15 -15 -17 -16 -15 -14 -13 -11 -10 -12 -12 -12 -12 -13 -13 -13 -12 -12 -12 -12 -12 -12 -13 -13 -13 -13 -13 -13 -13 -14 -13 -13 -13 -13 -13 -13 -13 -13 -13
-14 -13 -13 -13 -14 -13 -14 -14 -13 -12 -12 -13 -12 -12 -12 -12 -13 -13 -13 -13 -12 -12 -12 -12 -12 -13 -13 -13 -13 -13 -13 -13 -13 -13 -13 -13 -13 -13 -12 -13 -13 -13 -13
-13 -13 -13 -13 -14 -13 -13 -12 -13 -13 -13 -13 -12 -13 -13 -13 -13 -13 -12 -12 -12 -12 -12 -12 -12 -13 -13 -13 -13 -13 -13 -13 -13 -13 -13 -13 -13 -13 -13 -13 -13 -13 -13
-12 -13 -13 -13 -12 -13 -13 -13 -13 -12 -13 -12 -12 -13 -12 -12 -12 -12 -12 -12 -12 -12 -12 -12 -13 -13 -13 -13 -13 -13 -13 -13 -13 -13 -13 -13 -13 -13 -13 -13 -13 -13 -13
-12 -13 -13 -13 -13 -12 -13 -13 -13 -13 -13 -13 -12 -12 -12 -12 -11 -12 -12 -12 -12 -12 -12 -12 -12 -12 -12 -12 -13 -13 -13 -13 -13 -13 -13 -13 -13 -13 -13 -13 -13 -13 -13
-13 -13 -13 -13 -13 -13 -13 -13 -13 -13 -12 -12 -12 -12 -12 -12 -12 -12 -12 -12 -12 -12 -12 -12 -12 -12 -12 -12 -12 -12 -12 -12 -13 -13 -13 -13 -13 -13 -13 -13 -13 -13 -13
-13 -13 -13 -13 -12 -12 -12 -12 -12 -12 -12 -12 -12 -12 -12 -12 -12 -12 -12 -11 -11 -11 -11 -12 -12 -12 -12 -12 -12 -12 -13 -13 -13 -13 -13 -13 -13 -13 -13 -13 -13 -13 -13
-13 -12 -12 -12 -12 -12 -12 -12 -12 -12 -12 -12 -12 -12 -12 -12 -12 -12 -11 -11 -11 -11 -12 -12 -12 -12 -12 -13 -13 -12 -13 -13 -13 -13 -13 -13 -13 -13 -13 -14 -14 -14 -14
-12 -12 -12 -12 -12 -12 -12 -13 -13 -13 -13 -12 -12 -12 -12 -12 -12 -12 -12 -12 -12 -12 -12 -12 -12 -12 -12 -12 -12 -12 -12 -13 -13 -13 -13 -13 -13 -13 -14 -14 -14 -14 -14

GFSGL_500_temp_069.txt.gz
Temp
-16 -15 -15 -14 -14 -14 -14 -14 -14 -14 -14 -14 -14 -14 -14 -14 -13 -13 -13 -12 -11 -11 -11 -11 -11 -10 -10 -11 -11 -10 -10 -11 -11 -12 -11 -11 -11 -11 -11 -12 -12 -12 -12
-16 -15 -15 -15 -14 -14 -14 -14 -14 -14 -14 -14 -14 -14 -14 -13 -13 -13 -13 -13 -12 -12 -11 -12 -11 -10 -11 -11 -11 -10 -11 -11 -11 -12 -11 -11 -11 -11 -12 -12 -12 -12 -12
-16 -16 -16 -15 -15 -15 -15 -14 -14 -14 -14 -14 -13 -13 -13 -13 -13 -13 -13 -14 -13 -12 -11 -12 -11 -11 -11 -11 -11 -10 -11 -11 -11 -11 -11 -11 -11 -11 -12 -12 -12 -12 -12
-16 -16 -16 -16 -16 -15 -15 -14 -14 -14 -14 -14 -14 -13 -13 -13 -13 -13 -13 -13 -14 -13 -12 -12 -11 -11 -11 -11 -11 -10 -11 -11 -12 -12 -11 -11 -11 -12 -12 -12 -12 -12 -12
-16 -16 -17 -17 -16 -16 -15 -15 -15 -14 -14 -14 -14 -14 -13 -13 -13 -13 -13 -13 -14 -14 -13 -12 -12 -11 -11 -11 -11 -11 -11 -11 -11 -12 -11 -11 -12 -12 -12 -12 -12 -12 -12
-17 -16 -16 -17 -17 -16 -16 -16 -15 -15 -15 -15 -14 -14 -14 -13 -13 -13 -13 -13 -13 -13 -14 -13 -12 -12 -12 -11 -11 -12 -11 -11 -12 -12 -11 -12 -12 -12 -12 -12 -12 -12 -12
-17 -17 -16 -16 -17 -17 -16 -16 -15 -16 -16 -16 -16 -15 -14 -14 -13 -13 -13 -12 -13 -13 -13 -13 -14 -13 -12 -11 -12 -13 -11 -12 -12 -12 -12 -12 -12 -12 -12 -12 -12 -12 -12
-18 -18 -17 -16 -16 -16 -17 -17 -17 -17 -16 -16 -16 -16 -16 -15 -14 -13 -13 -13 -12 -12 -13 -13 -13 -13 -13 -13 -12 -12 -11 -12 -12 -12 -12 -12 -12 -12 -12 -12 -12 -12 -12
-17 -17 -17 -17 -16 -16 -15 -16 -16 -16 -16 -16 -16 -15 -15 -15 -14 -13 -13 -13 -12 -12 -12 -13 -13 -13 -13 -13 -13 -11 -11 -12 -12 -12 -12 -12 -12 -12 -12 -12 -12 -12 -13
-16 -17 -17 -17 -17 -17 -16 -16 -16 -16 -17 -17 -16 -16 -15 -15 -15 -14 -13 -13 -12 -12 -12 -13 -13 -13 -13 -13 -12 -12 -12 -12 -12 -12 -12 -12 -12 -12 -12 -12 -13 -13 -13
-18 -18 -18 -18 -18 -18 -17 -17 -17 -17 -17 -16 -16 -17 -17 -16 -15 -15 -14 -13 -12 -12 -12 -13 -13 -12 -12 -12 -12 -12 -12 -13 -12 -12 -12 -12 -12 -12 -12 -12 -13 -13 -13
-18 -18 -18 -18 -18 -18 -18 -18 -18 -18 -17 -17 -17 -16 -16 -16 -16 -15 -14 -13 -12 -12 -12 -13 -13 -13 -13 -12 -12 -12 -13 -12 -12 -12 -12 -12 -12 -12 -12 -12 -13 -13 -13
-17 -18 -18 -18 -18 -18 -18 -18 -18 -18 -18 -18 -18 -17 -17 -17 -15 -15 -15 -14 -13 -12 -13 -12 -13 -13 -12 -12 -12 -12 -12 -12 -12 -12 -12 -12 -12 -12 -12 -12 -13 -13 -13
-18 -18 -18 -18 -18 -18 -18 -18 -17 -17 -18 -17 -18 -18 -17 -17 -16 -15 -16 -15 -14 -13 -13 -13 -13 -12 -12 -12 -12 -12 -13 -12 -12 -12 -12 -12 -12 -12 -12 -13 -13 -13 -13
-17 -18 -18 -18 -18 -18 -18 -17 -17 -17 -18 -18 -18 -18 -18 -16 -16 -16 -16 -16 -15 -14 -13 -13 -13 -12 -12 -12 -12 -12 -12 -12 -12 -12 -12 -11 -12 -12 -13 -13 -13 -13 -13
-16 -17 -17 -18 -18 -18 -17 -17 -17 -18 -18 -18 -18 -17 -17 -17 -16 -16 -16 -16 -15 -14 -13 -13 -14 -13 -13 -12 -13 -13 -12 -12 -12 -12 -12 -12 -13 -13 -13 -13 -13 -13 -13
-16 -17 -17 -17 -17 -17 -18 -18 -17 -18 -18 -18 -18 -19 -18 -17 -16 -16 -16 -15 -14 -14 -13 -14 -13 -13 -13 -12 -12 -12 -12 -12 -12 -13 -13 -13 -13 -13 -13 -13 -13 -13 -13
-16 -17 -17 -17 -17 -18 -18 -18 -18 -18 -18 -19 -19 -19 -18 -16 -16 -16 -16 -15 -14 -13 -14 -13 -13 -13 -13 -13 -12 -12 -13 -13 -13 -13 -13 -13 -13 -13 -13 -13 -13 -13 -13
-16 -17 -17 -18 -18 -18 -18 -18 -18 -18 -18 -18 -19 -18 -17 -16 -16 -16 -15 -14 -13 -14 -13 -13 -13 -13 -13 -12 -13 -13 -13 -13 -13 -13 -13 -13 -13 -13 -13 -13 -13 -13 -13
-16 -17 -18 -18 -18 -18 -18 -17 -18 -18 -17 -17 -17 -16 -16 -16 -16 -15 -14 -14 -14 -13 -13 -13 -13 -13 -12 -13 -13 -13 -13 -13 -14 -13 -13 -13 -13 -13 -13 -13 -13 -13 -13
-17 -17 -18 -17 -17 -18 -18 -19 -19 -18 -17 -16 -16 -16 -15 -15 -14 -14 -14 -13 -13 -13 -13 -13 -12 -12 -13 -13 -13 -13 -13 -13 -13 -13 -13 -13 -13 -13 -13 -13 -13 -13 -13
-13 -14 -13 -14 -13 -14 -15 -15 -15 -15 -16 -16 -16 -16 -14 -14 -14 -14 -13 -13 -13 -13 -13 -12 -13 -13 -13 -13 -13 -13 -13 -13 -13 -13 -13 -13 -13 -13 -13 -13 -13 -13 -13
-13 -13 -12 -11 -12 -12 -12 -12 -13 -13 -12 -13 -13 -14 -14 -13 -13 -13 -13 -13 -13 -13 -13 -13 -13 -13 -13 -13 -13 -13 -13 -13 -13 -13 -13 -13 -13 -13 -13 -14 -13 -13 -13
-13 -12 -12 -12 -13 -13 -13 -13 -13 -13 -13 -13 -13 -13 -12 -12 -13 -13 -13 -13 -13 -13 -13 -13 -13 -13 -13 -13 -13 -13 -13 -13 -13 -13 -13 -13 -13 -14 -14 -13 -13 -13 -13
-13 -13 -13 -13 -13 -14 -14 -13 -13 -13 -13 -13 -11 -11 -12 -13 -13 -13 -13 -13 -13 -13 -13 -13 -13 -13 -13 -13 -13 -13 -13 -13 -13 -13 -13 -14 -13 -13 -13 -13 -14 -14 -14
-13 -13 -13 -13 -13 -13 -13 -13 -13 -13 -13 -13 -13 -13 -13 -13 -13 -13 -13 -13 -13 -13 -13 -13 -12 -12 -12 -12 -13 -13 -13 -13 -13 -13 -14 -13 -13 -13 -14 -14 -14 -14 -14

GFSGL_500_temp_072.txt.gz
Temp
-18 -18 -16 -16 -15 -14 -14 -14 -13 -13 -13 -14 -14 -14 -14 -14 -13 -13 -14 -14 -13 -13 -13 -12 -12 -12 -11 -10 -10 -10 -10 -10 -10 -11 -11 -11 -11 -11 -11 -11 -11 -11 -11
-18 -17 -17 -16 -15 -15 -15 -14 -14 -14 -14 -14 -14 -14 -14 -14 -13 -13 -13 -13 -13 -13 -13 -13 -12 -12 -11 -10 -10 -10 -10 -10 -10 -11 -11 -11 -12 -11 -11 -11 -11 -11 -12
-18 -17 -17 -17 -16 -16 -15 -15 -15 -15 -14 -14 -14 -14 -14 -14 -14 -13 -13 -13 -13 -13 -13 -13 -12 -12 -12 -11 -11 -10 -10 -10 -10 -10 -11 -11 -12 -11 -11 -11 -11 -12 -12
-17 -18 -17 -17 -17 -17 -16 -15 -15 -15 -15 -14 -14 -14 -14 -14 -14 -14 -14 -13 -13 -13 -13 -14 -13 -12 -12 -12 -11 -11 -11 -11 -11 -11 -10 -11 -11 -12 -11 -11 -12 -12 -12
-17 -17 -17 -17 -17 -17 -16 -16 -15 -15 -15 -15 -14 -14 -14 -14 -14 -14 -14 -13 -13 -13 -13 -13 -14 -13 -12 -12 -11 -11 -11 -11 -11 -10 -10 -11 -12 -12 -12 -12 -12 -12 -12
-17 -17 -17 -17 -17 -18 -17 -16 -16 -15 -15 -15 -15 -14 -14 -14 -14 -14 -13 -13 -13 -13 -13 -13 -13 -15 -13 -12 -11 -11 -11 -11 -11 -11 -11 -11 -12 -12 -12 -12 -12 -12 -12
-18 -17 -17 -17 -17 -18 -17 -16 -16 -16 -16 -15 -15 -15 -15 -14 -14 -14 -14 -13 -13 -13 -13 -13 -13 -13 -14 -14 -12 -12 -11 -11 -11 -11 -11 -12 -12 -12 -12 -12 -12 -12 -12
-17 -18 -18 -17 -17 -17 -17 -17 -17 -17 -16 -16 -16 -16 -16 -15 -15 -14 -14 -14 -13 -13 -13 -13 -13 -13 -13 -14 -14 -13 -12 -12 -11 -11 -11 -12 -12 -12 -12 -12 -12 -12 -12
-17 -17 -17 -17 -17 -17 -18 -18 -18 -17 -17 -17 -16 -16 -16 -16 -16 -15 -14 -14 -13 -13 -13 -13 -13 -13 -13 -13 -14 -14 -13 -13 -11 -11 -11 -12 -12 -12 -12 -12 -12 -12 -13
-17 -18 -17 -18 -18 -18 -18 -18 -17 -17 -17 -17 -17 -17 -16 -16 -16 -15 -15 -14 -14 -13 -13 -13 -13 -13 -13 -13 -13 -13 -13 -12 -11 -12 -12 -12 -12 -12 -12 -12 -12 -13 -12
-18 -18 -18 -18 -18 -17 -17 -18 -17 -17 -17 -17 -17 -17 -17 -16 -16 -16 -15 -14 -14 -13 -13 -13 -13 -13 -13 -13 -13 -13 -13 -12 -12 -12 -12 -13 -12 -12 -12 -12 -12 -12 -12
-17 -18 -17 -18 -18 -18 -18 -18 -17 -17 -17 -17 -16 -16 -16 -16 -16 -16 -16 -14 -14 -14 -13 -13 -13 -13 -13 -13 -13 -13 -13 -13 -12 -12 -13 -13 -12 -12 -12 -12 -12 -12 -12
-18 -18 -17 -18 -17 -17 -17 -17 -18 -18 -17 -17 -17 -17 -17 -17 -17 -16 -16 -15 -15 -14 -14 -13 -13 -13 -13 -13 -13 -13 -13 -13 -12 -12 -13 -12 -12 -12 -12 -12 -12 -12 -12
-18 -17 -17 -17 -18 -18 -18 -18 -18 -18 -18 -18 -18 -17 -17 -18 -18 -17 -16 -16 -15 -15 -14 -13 -14 -14 -13 -13 -12 -13 -13 -13 -12 -13 -13 -13 -12 -12 -13 -12 -12 -12 -12
-16 -16 -17 -18 -18 -18 -18 -18 -18 -18 -18 -18 -18 -17 -17 -17 -18 -18 -17 -17 -16 -15 -14 -14 -14 -14 -13 -13 -12 -14 -12 -12 -13 -13 -13 -13 -12 -13 -13 -13 -12 -12 -12
-16 -15 -16 -17 -18 -19 -19 -19 -18 -18 -18 -18 -18 -17 -17 -18 -18 -18 -16 -17 -16 -15 -15 -15 -16 -14 -13 -13 -13 -13 -12 -13 -13 -13 -13 -13 -13 -13 -13 -13 -12 -12 -13
-16 -15 -16 -17 -18 -19 -18 -18 -18 -18 -18 -18 -17 -17 -17 -18 -18 -18 -17 -16 -15 -15 -15 -16 -15 -13 -13 -13 -13 -12 -13 -13 -13 -13 -13 -13 -13 -13 -13 -13 -12 -12 -13
-15 -15 -16 -17 -18 -18 -18 -18 -18 -18 -18 -17 -17 -17 -17 -18 -18 -18 -16 -16 -15 -15 -16 -16 -14 -13 -13 -13 -13 -13 -13 -13 -13 -13 -13 -13 -13 -13 -13 -13 -13 -12 -13
-15 -15 -16 -17 -17 -17 -17 -17 -18 -18 -18 -18 -18 -18 -18 -17 -17 -16 -16 -16 -16 -16 -16 -14 -13 -14 -14 -13 -13 -13 -13 -13 -13 -13 -13 -13 -13 -13 -13 -13 -13 -13 -13
-16 -16 -17 -17 -18 -18 -18 -18 -18 -19 -19 -19 -19 -19 -18 -17 -17 -16 -16 -16 -16 -16 -14 -14 -14 -13 -13 -13 -13 -13 -13 -13 -13 -13 -13 -13 -13 -13 -13 -13 -13 -13 -13
-16 -17 -18 -18 -18 -18 -18 -18 -18 -19 -19 -20 -20 -20 -19 -17 -16 -16 -16 -16 -15 -14 -14 -14 -14 -13 -13 -13 -13 -14 -14 -13 -14 -14 -14 -14 -14 -14 -13 -13 -13 -13 -13
-16 -17 -17 -18 -18 -17 -17 -18 -18 -18 -18 -19 -19 -18 -17 -16 -16 -16 -15 -15 -14 -14 -14 -13 -13 -13 -13 -13 -14 -14 -14 -14 -14 -14 -13 -13 -14 -14 -14 -14 -13 -13 -13
-14 -14 -14 -14 -15 -16 -16 -17 -17 -17 -17 -17 -16 -16 -16 -16 -15 -14 -14 -14 -13 -14 -12 -13 -13 -13 -13 -13 -14 -13 -13 -14 -13 -13 -13 -14 -14 -14 -13 -13 -13 -13 -13
-12 -12 -12 -13 -13 -13 -13 -14 -15 -16 -16 -16 -16 -16 -15 -14 -13 -13 -13 -13 -13 -12 -13 -13 -13 -13 -13 -14 -14 -14 -14 -13 -13 -13 -14 -14 -14 -13 -13 -13 -13 -13 -14
-12 -12 -12 -12 -11 -12 -12 -12 -13 -13 -14 -14 -14 -13 -13 -13 -13 -13 -13 -13 -13 -13 -13 -13 -13 -13 -14 -14 -14 -14 -13 -13 -14 -14 -14 -14 -14 -14 -14 -14 -14 -14 -14
-13 -13 -13 -13 -13 -12 -13 -13 -12 -12 -13 -13 -13 -13 -13 -13 -13 -13 -13 -13 -13 -13 -13 -14 -14 -14 -14 -14 -13 -13 -13 -14 -14 -14 -14 -14 -13 -13 -14 -14 -14 -14 -14

GFSGL_500_temp_075.txt.gz
Temp
-17 -17 -17 -17 -17 -16 -15 -15 -14 -14 -13 -13 -13 -13 -13 -13 -13 -13 -13 -13 -14 -14 -14 -13 -13 -13 -12 -11 -11 -11 -11 -9 -9 -10 -10 -10 -10 -10 -11 -12 -12 -11 -11
-17 -17 -18 -18 -17 -17 -16 -16 -15 -14 -14 -13 -13 -13 -13 -13 -13 -14 -13 -14 -14 -14 -13 -13 -13 -13 -12 -11 -11 -12 -12 -11 -9 -10 -10 -11 -10 -10 -11 -11 -12 -11 -11
-17 -17 -17 -17 -17 -17 -17 -17 -16 -15 -14 -14 -14 -14 -14 -14 -14 -14 -14 -13 -13 -13 -13 -13 -13 -13 -13 -12 -12 -12 -11 -12 -10 -10 -10 -10 -11 -11 -10 -11 -12 -11 -11
-18 -18 -17 -17 -17 -17 -17 -17 -16 -16 -16 -15 -14 -14 -14 -13 -14 -14 -14 -14 -13 -13 -13 -13 -13 -13 -13 -13 -13 -12 -12 -12 -12 -11 -11 -11 -10 -11 -11 -11 -12 -11 -11
-18 -18 -18 -18 -17 -17 -17 -17 -17 -16 -16 -16 -15 -15 -14 -14 -14 -14 -14 -14 -13 -13 -13 -13 -13 -13 -13 -13 -14 -13 -12 -12 -12 -11 -11 -11 -11 -11 -11 -11 -12 -12 -12
-18 -18 -18 -18 -18 -18 -18 -17 -17 -17 -17 -16 -16 -15 -15 -15 -14 -14 -14 -14 -14 -14 -13 -13 -13 -13 -13 -13 -13 -13 -13 -12 -12 -11 -11 -11 -11 -11 -11 -12 -11 -12 -12
-18 -17 -18 -18 -17 -18 -17 -18 -17 -17 -17 -16 -16 -16 -15 -15 -15 -15 -14 -14 -14 -14 -13 -13 -13 -13 -13 -13 -13 -13 -12 -12 -11 -11 -11 -11 -11 -11 -11 -12 -12 -12 -12
-18 -18 -18 -18 -18 -18 -18 -18 -18 -18 -17 -17 -16 -16 -16 -16 -16 -15 -15 -14 -14 -14 -14 -14 -13 -13 -13 -13 -13 -13 -13 -13 -12 -11 -11 -11 -11 -11 -11 -13 -12 -12 -12
-18 -19 -18 -18 -18 -17 -18 -18 -18 -18 -18 -17 -17 -17 -16 -16 -16 -16 -15 -15 -14 -14 -14 -14 -13 -13 -13 -13 -13 -13 -13 -13 -13 -12 -11 -12 -12 -11 -11 -13 -12 -12 -12
-18 -18 -18 -18 -18 -18 -18 -18 -18 -18 -18 -18 -17 -17 -17 -17 -16 -16 -15 -15 -14 -14 -14 -14 -14 -14 -13 -13 -13 -13 -13 -12 -13 -13 -12 -12 -12 -12 -12 -12 -12 -12 -12
-18 -18 -18 -18 -18 -17 -17 -17 -17 -17 -18 -18 -17 -17 -17 -17 -17 -17 -16 -15 -15 -14 -14 -14 -14 -14 -13 -13 -14 -14 -13 -13 -13 -13 -13 -13 -12 -12 -12 -13 -12 -12 -12
-18 -18 -17 -17 -17 -17 -17 -17 -17 -17 -17 -18 -18 -18 -18 -18 -17 -16 -16 -16 -15 -15 -14 -14 -14 -15 -14 -14 -14 -14 -13 -13 -13 -13 -13 -13 -12 -12 -12 -13 -12 -12 -12
-18 -17 -18 -18 -18 -17 -17 -17 -17 -17 -17 -18 -18 -18 -17 -17 -17 -17 -17 -16 -16 -15 -14 -14 -14 -15 -14 -14 -14 -14 -13 -13 -13 -14 -14 -12 -12 -12 -12 -12 -12 -12 -12
-16 -17 -17 -17 -18 -18 -17 -17 -17 -18 -17 -18 -18 -17 -17 -17 -17 -17 -16 -16 -16 -15 -15 -15 -14 -14 -14 -15 -15 -14 -14 -13 -13 -13 -14 -14 -13 -13 -12 -13 -12 -12 -12
-17 -16 -16 -17 -18 -18 -18 -18 -18 -18 -18 -18 -18 -18 -18 -17 -17 -17 -17 -16 -16 -16 -15 -15 -15 -14 -14 -15 -15 -14 -14 -13 -13 -13 -14 -13 -13 -13 -13 -13 -12 -12 -12
-16 -16 -17 -17 -18 -18 -18 -18 -18 -18 -18 -18 -18 -18 -17 -17 -17 -17 -17 -16 -17 -17 -16 -16 -15 -15 -15 -15 -15 -14 -14 -13 -14 -15 -13 -13 -13 -13 -13 -12 -12 -12 -13
-16 -16 -17 -17 -16 -16 -17 -18 -18 -18 -18 -18 -18 -18 -17 -17 -17 -17 -17 -17 -17 -17 -17 -17 -16 -15 -15 -15 -15 -14 -13 -13 -14 -14 -13 -13 -13 -13 -12 -13 -13 -13 -13
-15 -16 -16 -16 -15 -15 -17 -19 -19 -19 -19 -18 -18 -18 -18 -18 -17 -17 -17 -17 -17 -18 -17 -17 -16 -15 -15 -16 -14 -14 -13 -13 -14 -14 -13 -13 -13 -13 -13 -13 -13 -13 -13
-16 -16 -16 -16 -16 -16 -17 -18 -19 -19 -19 -19 -18 -18 -18 -17 -18 -17 -17 -17 -18 -17 -17 -16 -16 -16 -16 -15 -14 -14 -14 -14 -14 -13 -13 -13 -13 -13 -13 -13 -13 -13 -13
-16 -16 -16 -16 -16 -17 -17 -18 -18 -18 -18 -18 -18 -18 -18 -17 -17 -17 -17 -18 -18 -17 -17 -16 -16 -15 -15 -14 -14 -14 -15 -14 -14 -13 -13 -13 -13 -13 -13 -13 -13 -13 -13
-17 -17 -17 -17 -17 -17 -17 -18 -18 -18 -18 -18 -18 -18 -17 -17 -17 -17 -17 -17 -17 -17 -16 -16 -15 -15 -14 -14 -15 -14 -14 -14 -14 -13 -14 -14 -14 -13 -14 -14 -13 -14 -13
-17 -17 -17 -17 -18 -18 -18 -18 -18 -19 -19 -19 -19 -18 -17 -17 -17 -17 -16 -17 -17 -16 -16 -15 -15 -14 -15 -14 -14 -14 -14 -13 -14 -14 -14 -14 -14 -14 -14 -14 -14 -14 -13
-15 -16 -17 -17 -17 -17 -17 -18 -18 -19 -20 -20 -20 -18 -17 -17 -17 -16 -16 -16 -16 -15 -15 -14 -14 -14 -14 -14 -14 -13 -14 -14 -14 -14 -14 -14 -14 -14 -14 -13 -13 -13 -13
-14 -14 -14 -15 -16 -16 -16 -17 -17 -18 -19 -20 -18 -17 -16 -16 -16 -16 -16 -15 -15 -15 -14 -14 -13 -13 -14 -13 -13 -14 -14 -14 -14 -14 -14 -14 -14 -13 -13 -13 -13 -14 -14
-14 -14 -14 -14 -15 -15 -16 -16 -16 -16 -16 -16 -16 -16 -16 -16 -16 -15 -15 -15 -15 -15 -14 -14 -14 -14 -13 -14 -14 -14 -14 -14 -14 -14 -14 -13 -13 -13 -14 -14 -14 -14 -14
-13 -14 -14 -14 -13 -14 -14 -15 -15 -16 -16 -16 -16 -16 -16 -15 -15 -15 -15 -15 -15 -14 -14 -14 -14 -14 -14 -14 -14 -14 -14 -14 -14 -14 -13 -13 -13 -14 -14 -14 -14 -14 -14